Vorticity
nan nan nan nan nan nan nan nan nan nan nan nan nan nan nan nan nan nan nan nan nan nan nan nan nan nan nan nan nan nan nan nan nan nan nan nan nan nan nan nan nan nan nan nan nan
nan 7 6 6 8 8 6 6 7 6 8 8 7 6 7 16 17 6 -2 6 19 11 7 15 12 4 5 7 8 8 8 4 5 9 10 8 9 5 9 3 6 11 17 14 nan
nan 6 6 6 8 7 8 7 5 6 7 8 8 7 14 18 10 3 1 11 15 10 7 9 8 7 8 7 2 9 13 1 5 9 12 7 4 9 7 5 13 12 9 4 nan
nan 7 7 6 6 7 7 7 6 6 6 7 7 9 18 15 6 -2 1 11 13 7 1 11 18 11 9 11 4 -1 3 12 6 10 14 9 7 8 6 12 14 14 5 7 nan
nan 7 7 7 7 7 7 7 6 6 6 7 6 13 16 11 4 0 7 11 10 10 7 3 6 11 11 9 7 7 4 9 7 5 14 12 10 6 5 11 14 10 9 9 nan
nan 7 8 7 6 7 7 8 7 6 6 7 7 15 11 5 8 6 11 13 11 7 6 6 6 9 8 15 5 3 7 9 11 5 7 6 11 7 5 11 10 7 6 8 nan
nan 7 7 7 6 7 7 7 7 6 6 7 11 13 8 3 3 7 13 14 9 8 8 11 6 7 15 13 6 5 3 2 6 11 5 8 11 9 10 14 9 7 6 8 nan
nan 6 7 7 7 7 7 7 8 7 7 8 14 12 7 6 7 6 10 9 9 11 8 6 8 8 12 9 9 5 8 5 -1 10 9 16 9 1 9 10 7 11 9 8 nan
nan 6 7 8 7 6 7 7 10 12 14 15 13 8 6 8 8 9 9 7 9 7 11 9 7 10 11 7 4 8 8 4 4 9 10 8 6 2 6 5 5 7 11 9 nan
nan 8 7 7 7 7 10 15 16 14 18 13 7 6 9 9 5 9 8 9 10 10 9 8 13 9 5 8 9 9 9 10 10 8 2 1 6 3 5 5 5 6 9 10 nan
nan 7 7 7 8 9 13 15 13 11 10 8 9 5 6 9 10 7 9 10 10 10 7 8 10 6 5 7 12 11 11 11 9 8 3 9 4 5 2 5 8 8 11 11 nan
nan 8 8 7 9 11 10 10 9 8 8 8 6 8 9 9 7 7 11 10 10 6 7 12 7 5 9 10 9 10 8 4 16 11 5 10 7 12 6 6 6 5 9 10 nan
nan 7 8 8 10 10 9 8 9 10 10 10 9 8 9 9 7 6 8 8 7 8 12 9 3 8 12 9 9 9 6 8 13 7 8 7 9 13 11 6 5 5 7 11 nan
nan 7 8 6 10 9 10 9 7 8 10 11 9 10 10 7 9 10 7 9 9 8 9 4 9 10 8 9 9 7 12 13 8 6 8 5 11 12 16 11 7 5 7 9 nan
nan 8 10 6 7 10 10 8 6 8 6 14 10 8 9 8 7 9 9 9 9 8 9 7 8 10 8 7 8 8 14 16 7 5 7 8 10 8 15 16 12 10 6 9 nan
nan 8 6 7 7 12 9 5 5 10 12 9 9 8 8 8 8 10 8 7 9 10 7 10 8 9 7 8 9 10 7 7 9 10 10 10 6 9 10 9 12 14 11 9 nan
nan 9 4 5 11 10 5 5 11 6 11 12 10 9 8 9 7 9 8 9 6 5 7 13 11 10 10 6 10 9 7 9 8 10 9 11 8 8 7 10 11 11 8 8 nan
nan 3 2 9 12 7 6 9 8 9 9 10 12 10 9 7 8 8 7 11 9 6 10 7 10 15 9 10 10 7 7 9 10 7 10 11 7 7 5 10 13 8 9 13 nan
nan 3 12 13 7 6 10 8 9 10 12 7 7 11 9 8 11 9 9 10 12 9 6 4 8 9 9 11 10 9 10 8 6 7 11 7 4 12 14 9 13 13 10 11 nan
nan 8 12 12 6 7 8 7 10 10 8 9 9 11 9 9 10 7 9 9 13 11 5 6 11 10 10 8 9 13 8 5 10 12 7 8 10 11 9 12 9 11 8 7 nan
nan 9 11 8 6 9 10 9 9 11 9 11 10 9 10 11 8 7 6 7 8 14 13 7 8 8 11 12 9 6 7 8 11 10 9 10 11 13 9 11 12 7 6 7 nan
nan 11 9 7 9 8 10 10 10 10 7 9 11 10 12 9 8 9 10 5 12 17 11 9 8 11 7 7 8 9 13 8 9 7 7 11 6 9 14 18 15 11 9 8 nan
nan 8 10 10 10 8 9 12 10 8 9 10 9 10 11 8 8 11 8 5 11 13 13 11 7 8 15 13 8 10 12 5 3 12 13 3 8 5 10 16 14 11 8 8 nan
nan 7 8 9 8 10 11 12 9 9 11 10 9 8 10 8 9 12 7 6 8 6 12 17 12 8 5 3 7 7 11 13 2 4 12 6 6 5 7 6 9 10 10 8 nan
nan 11 11 12 11 6 9 10 10 9 10 7 9 12 10 8 9 9 7 6 7 9 12 13 12 11 7 10 9 5 7 12 11 9 1 9 6 7 13 10 9 6 5 7 nan
nan 9 10 14 19 9 6 12 6 10 10 10 11 12 10 10 12 10 8 10 5 10 10 11 14 11 13 16 13 12 11 12 10 7 8 5 8 11 12 10 9 6 3 5 nan
nan nan nan nan nan nan nan nan nan nan nan nan nan nan nan nan nan nan nan nan nan nan nan nan nan nan nan nan nan nan nan nan nan nan nan nan nan nan nan nan nan nan nan nan nan
CAPE
6 7 16 24 30 12 35 26 19 20 9 11 10 7 104 157 83 0 0 4 115 144 26 16 127 77 29 0 0 90 133 0 0 0 0 0 0 0 41 68 251 202 647 839 669
7 8 5 14 24 17 6 24 24 12 15 5 3 5 53 112 0 0 0 127 145 75 1 56 86 119 1 0 0 42 51 1 15 43 0 0 6 0 106 494 503 938 1138 1002 743
7 6 7 5 16 19 10 11 24 14 12 4 0 8 52 2 0 0 3 62 91 35 5 78 61 45 17 0 3 33 38 40 51 186 50 0 0 0 189 237 632 1172 1303 876 764
11 9 7 5 4 16 8 10 13 9 9 4 8 19 16 0 0 0 28 17 21 16 0 1 32 65 16 0 6 32 49 65 34 55 38 25 0 0 0 21 158 1294 1285 1093 898
13 11 11 1 3 12 6 10 10 7 6 5 13 18 0 0 0 0 10 0 0 14 6 0 41 7 17 3 29 19 4 0 2 16 16 1 0 0 0 672 900 1109 1165 1208 1062
11 12 13 1 1 1 3 8 5 2 3 4 9 0 0 0 0 0 0 0 0 0 0 0 0 0 1 2 4 21 19 0 0 0 1 3 0 0 0 426 1107 983 1017 809 673
10 11 12 1 2 0 2 5 2 0 0 1 1 0 0 0 0 0 0 0 0 0 0 1 1 1 0 1 12 50 17 0 0 0 0 0 0 0 0 11 787 1026 776 657 536
6 10 6 3 1 0 0 1 0 0 0 0 0 0 0 0 0 0 0 4 0 2 2 0 3 0 1 14 75 26 4 3 2 0 0 0 0 0 0 0 0 53 326 501 749
3 8 7 6 1 0 0 0 0 0 0 0 0 0 0 0 0 0 0 0 0 0 0 0 0 0 0 14 0 4 5 4 4 10 0 0 0 0 0 0 0 0 0 83 277
3 4 5 0 2 0 0 0 0 0 0 0 0 0 0 0 0 0 0 0 0 0 0 0 0 0 0 0 0 0 0 4 2 14 2 0 0 0 0 0 0 0 0 0 0
2 3 4 0 0 0 0 0 0 0 0 0 0 0 0 0 0 0 0 0 0 0 0 0 0 0 0 0 0 0 0 0 0 0 5 3 0 11 0 0 0 0 0 0 0
12 5 1 0 0 0 0 0 0 0 0 0 0 0 0 0 0 0 0 0 0 0 0 0 0 0 0 0 0 0 0 0 0 0 25 4 0 10 0 0 0 0 0 0 0
12 6 0 0 0 0 0 0 0 0 0 0 0 0 0 0 0 0 0 0 0 0 0 0 0 0 0 0 0 0 0 0 0 0 3 0 0 0 0 0 0 0 0 0 0
10 10 0 0 0 0 0 0 0 0 0 0 0 0 0 0 0 0 0 0 0 0 0 0 0 0 0 0 0 0 0 0 0 0 1 0 0 0 0 0 0 0 0 0 0
17 20 0 3 0 0 0 0 0 0 0 0 0 0 0 0 0 0 0 0 0 0 0 0 0 0 0 0 0 0 0 0 13 0 0 0 0 0 0 0 0 0 0 0 0
22 13 6 1 0 0 0 0 0 0 0 0 0 0 0 0 0 0 0 0 0 0 0 0 0 0 0 0 0 0 0 0 0 0 5 0 0 0 0 0 0 0 0 0 0
18 24 11 0 0 0 0 0 0 0 0 0 0 0 0 0 0 0 0 0 0 0 0 0 0 0 0 0 0 1 0 7 18 4 0 0 0 0 0 0 0 0 0 0 0
60 10 4 0 0 0 0 0 0 0 0 0 0 0 0 0 0 0 0 0 0 0 0 0 0 0 0 0 0 0 0 0 1 0 0 0 0 0 0 0 0 0 0 0 0
57 0 0 0 0 0 0 0 0 0 0 0 0 0 0 0 0 0 0 0 0 0 0 0 0 0 0 0 0 1 0 0 0 0 0 0 0 0 0 0 0 0 0 0 0
16 2 0 0 0 0 0 0 0 0 0 0 0 0 0 0 0 0 0 0 0 0 0 0 7 0 0 3 1 0 0 0 0 0 0 0 0 0 0 0 0 0 0 0 0
41 36 3 0 0 0 0 0 0 0 0 0 0 0 0 0 0 0 0 0 2 0 0 1 5 0 20 13 1 4 1 0 0 0 0 0 0 0 0 0 0 0 0 0 0
36 44 0 0 0 0 0 0 0 0 0 0 0 0 0 0 0 0 0 0 0 12 6 11 8 1 0 8 3 5 23 1 0 0 0 0 0 0 0 0 0 0 0 0 0
31 10 2 0 1 3 0 0 0 0 0 0 0 0 0 0 0 0 0 0 0 0 12 17 10 2 0 38 7 86 0 17 0 0 0 0 0 0 0 0 0 0 0 0 0
0 2 1 2 0 1 0 0 0 0 0 0 0 0 0 0 0 0 0 0 0 0 17 13 0 9 0 2 14 17 12 13 2 0 0 0 0 0 0 0 0 0 0 0 0
0 0 0 2 1 1 0 0 0 0 0 0 0 0 0 0 0 0 0 0 0 0 0 0 1 2 0 1 15 1 9 31 0 0 0 0 0 0 0 0 0 0 0 0 0
0 0 0 0 0 0 0 0 0 0 0 0 0 0 0 0 0 0 0 0 0 0 0 0 0 0 0 0 0 0 0 6 14 5 2 0 0 0 0 0 0 0 0 0 0
0 0 0 0 0 0 0 0 0 0 0 0 0 0 0 0 0 0 0 0 0 0 0 0 0 0 0 0 0 0 0 0 2 1 1 0 0 0 0 0 0 0 0 0 0